Location: Vancouver
(49.2827°N, 123.1207°W)
Time: 09:05:06
(UTC-07:00)

ISS - Visible Passes

Search period start: 14 May 2026 00:00
Search period end: 24 May 2026 00:00
Orbit: 414 x 424 km, 51.6° (Epoch: 14 May)

Date Brightness Start Highest point End Pass type
(mag) Time Alt. Az. Time Alt. Az. Time Alt. Az.
14 May -1.1 01:17:34 10° WNW 01:17:57 13° WNW 01:17:57 13° WNW visible
14 May -3.2 22:53:01 10° WNW 22:56:20 56° N 22:58:57 15° E visible
15 May -2.5 00:29:53 10° WNW 00:31:54 33° W 00:31:54 33° W visible
15 May -3.1 22:05:18 10° W 22:08:36 54° N 22:11:54 10° E visible
15 May -3.9 23:42:12 10° WNW 23:45:34 89° S 23:45:49 75° ESE visible
16 May -3.6 22:54:32 10° WNW 22:57:53 73° NNE 22:59:44 24° E visible
17 May -1.6 00:31:29 10° W 00:32:40 18° W 00:32:40 18° W visible
17 May -3.3 22:06:51 10° WNW 22:10:10 62° N 22:13:30 10° E visible
17 May -3.3 23:43:42 10° WNW 23:46:35 44° SW 23:46:35 44° SW visible
18 May -3.8 22:55:58 10° WNW 22:59:18 67° SSW 23:00:30 35° SE visible
19 May -3.8 22:08:15 10° WNW 22:11:37 89° SSW 22:14:27 14° ESE visible
19 May -2.0 23:45:26 10° W 23:47:23 21° WSW 23:47:23 21° WSW visible
20 May -2.8 22:57:29 10° W 23:00:32 32° SSW 23:01:20 28° S visible
21 May -3.3 22:09:40 10° WNW 22:12:55 47° SSW 22:15:18 16° SE visible
22 May -1.7 22:59:31 10° W 23:01:33 15° SW 23:02:14 14° SSW visible
23 May -2.1 22:11:19 10° W 22:13:59 22° SW 22:16:16 12° S visible
